STARLINK-1063, 44768

Orbit data source: Space-Track

STARLINK-1063, 44768 is a payload satellite owned by SpaceX/Seattle (US) in LEO that was launched on Mon, 11 Nov 2019 UTC via an FALCON 9 launch vehicle from the Air Force Eastern Test Range (AFETR). Payload-class satellites include a variety of spacecraft equipped with specific instruments for various scientific and technological missions. These include communications satellites like Starlink; space stations such as the ISS; scientific satellites like the Hubble; Earth observation satellites from companies like Planet Labs, Umbra, and HawkEye 360; GPS; miniature CubeSats for education and research; and military/defense satellites.

Loading next visibility...
Identifier
44768, 2019-074BH
Orbit
LEO
Last TLE update
11 hours ago
Origin
Manufacturer
SpaceX/Seattle
Mission
Operational Commercial Communications
Bus & Motor
STARLINK, Unknown motor
Mass
260 kg wet, ~248 kg dry
Launch date (UTC)
2019-11-11 (6 years ago)
Launch vehicle
FALCON 9
Launch site
Air Force Eastern Test Range (AFETR)
Object type
Payload
Rocket body
Debris
Shape & HBR
Box + 1 Pan, 8.86 m
Radar Cross Section
13.562 m², Large (>1 m²)

Expand to show TLE details & history

TLE from 11 hours ago
0 STARLINK-1063
1 44768U 19074BH  25189.86532201  .00000261  00000-0  36403-4 0  9991
2 44768  53.0543 241.1895 0000917  88.4616 271.6478 15.06394893311458
Epoch: 2025-07-08T20:46Z
TLE epoch observation values (Epoch: 2025-07-08T20:46:03.821Z)
Latitude
-0.00003°
Longitude
2.61938°
Altitude
548.088 km
Speed
7.589 km/s
True Right ascension
16h 04m 45s
True Declination
0° 00' 00"
Sunlit
Object was in full shadow at epoch
Visualization orbit readout
Latitude
28.55494°
Longitude
24.52221°
Altitude
548.305 km
Speed
7.592 km/s
Apparent Right ascension
13h 58m 46s
Apparent Declination
-11° 07' 17"
Sunlit
Object is in full shadow
Visualization observer readout
Local Sidereal Time
20:14:07
Azimuth
263.834° W
Elevation
-10.031°
Doppler factor
1
Orbital elements
Apogee altitude
548.133 km
Perigee altitude
546.863 km
Semi-major axis
6,925.635 km
Eccentricity
0.00009
Inclination
53.0543°
RAAN
241.1895°
Arg. of periapsis
88.4616°
True anomaly
Unknown
Mean anomaly
271.6478°
Eccentric anomaly
Unknown
Mean motion
3.76577 °/min
Orbital period
95.6 mins
BSTAR
0.000036403
Loading maneuver chart data...
Loading SW <> Apogee altitude chart data...

STARLINK-1063 Visibility forecast

Observer location: undefined°, undefined°

Span
Click to sort rows by Start time (UTC) header in descending order
Start Az.
Max El. time (UTC)
Max El. Az.
Max El.
End time (UTC)
End Az.
5 mins2025-07-09 08:11:31.857Z299.912° NW2025-07-09 08:13:31.857Z332.704° NNW18.112°2025-07-09 08:16:31.857Z23.625° NE
5 mins2025-07-09 11:33:31.857Z344.791° N2025-07-09 11:35:31.857Z24.289° NE21.362°2025-07-09 11:38:31.857Z74.955° E
6 mins2025-07-09 13:12:31.857Z305.459° NW2025-07-09 13:15:31.857Z195.802° SSW44.008°2025-07-09 13:18:31.857Z137.692° SSE
4 mins2025-07-10 04:46:31.857Z161.499° S2025-07-10 04:48:31.857Z124.204° SE18.908°2025-07-10 04:50:31.857Z89.522° E
6 mins2025-07-10 06:25:31.857Z255.445° W2025-07-10 06:27:31.857Z322.411° NNW39.847°2025-07-10 06:31:31.857Z43.452° NE
|